DECAYED

STARLINK-1219, 45210 (Decayed)

Orbit data source: Space-Track

STARLINK-1219, 45210 was a payload satellite owned by SpaceX/Seattle (US) in LEO that was launched on Mon, 17 Feb 2020 UTC via an FALCON 9 launch vehicle from the Air Force Eastern Test Range (AFETR). Payload-class satellites include a variety of spacecraft equipped with specific instruments for various scientific and technological missions. These include communications satellites like Starlink; space stations such as the ISS; scientific satellites like the Hubble; Earth observation satellites from companies like Planet Labs, Umbra, and HawkEye 360; GPS; miniature CubeSats for education and research; and military/defense satellites.

Not visible in the next 10 days
Identifier
45210, 2020-012AJ
Orbit
Decayed
Country
Flag of USUS
Related business
Manufacturer
SpaceX/Seattle
Mission
Decayed Commercial Communications
Bus & Motor
STARLINK, Unknown motor
Mass
260 kg wet, ~248 kg dry
Launch date (UTC)
2020-02-17 (6 years ago)
Launch vehicle
FALCON 9
Launch site
Air Force Eastern Test Range (AFETR)
Object type
Payload
Rocket body
Debris
Shape & HBR
Box + 1 Pan, 10.1 m
Radar Cross Section
13.562 m², Large (>1 m²)

Expand to show TLE details & history
Last TLE update: 5 months ago

TLE from 5 months ago
0 STARLINK-1219
1 45210U 20012AJ  25247.40880323  .11844454  12543-4  28818-3 0  9995
2 45210  53.0231  62.2512 0005274 280.9083  79.1372 16.45877610308054
Epoch: 2025-09-04T09:48Z
TLE epoch observation values (Epoch: 2025-09-04T09:48:40.599Z)
Latitude
-0.00001°
Longitude
-68.68973°
Altitude
150.496 km
Speed
7.818 km/s
True Right ascension
04h 09m 00s
True Declination
0° 00' 00"
Sunlit
Object was in daylight at epoch
Visualization orbit readout
Latitude
Unknown
Longitude
Unknown
Altitude
Unknown
Speed
Unknown
Apparent Right ascension
Unknown
Apparent Declination
Unknown
Sunlit
N/A
Visualization observer readout
Local Sidereal Time
15:03:14
Azimuth
Unknown
Elevation
Unknown
Doppler factor
Unknown
Orbital elements
Apogee altitude
153.949 km
Perigee altitude
147.063 km
Semi-major axis
6,528.643 km
Eccentricity
0.00053
Inclination
53.0231°
RAAN
62.2512°
Arg. of periapsis
280.9083°
True anomaly
79.19656°
Mean anomaly
79.1372°
Eccentric anomaly
79.16688°
Mean motion
4.11442 °/min
Orbital period
87.5 mins
BSTAR
0.00028818
Loading maneuver chart data...
Computing Atmospheric mass density...

Documentation

Showing up to 5 results
|